This is the latest recevied weather packets stored in our database for station/object KM5R. If no packets are shown the sender has not sent any weather packets the latest 10 day(s).
| Time | Temp. | Humidity | Pressure | Rain* | Wind** | Luminosity | Snow |
|---|---|---|---|---|---|---|---|
| 1777915367 | 23.89° C | 61% | 1014.6 hPa | 0 mm | - | 812 W/m² | - |
| 1777915063 | 23.89° C | 62% | 1014.5 hPa | 0 mm | - | 441 W/m² | - |
| 1777914760 | 23.89° C | 62% | 1014.6 hPa | 0 mm | - | 340 W/m² | - |
| 1777914457 | 23.89° C | 61% | 1014.4 hPa | 0 mm | - | 382 W/m² | - |
| 1777914155 | 23.89° C | 61% | 1014.5 hPa | 0 mm | - | 788 W/m² | - |
| 1777913851 | 23.33° C | 63% | 1014.6 hPa | 0 mm | - | 780 W/m² | - |
| 1777913547 | 23.33° C | 63% | 1014.6 hPa | 0 mm | - | 748 W/m² | - |
| 1777913243 | 23.33° C | 62% | 1014.6 hPa | 0 mm | - | 713 W/m² | - |
| 1777912941 | 23.33° C | 63% | 1014.7 hPa | 0 mm | - | 728 W/m² | - |
| 1777912636 | 23.33° C | 63% | 1014.9 hPa | 0 mm | - | 695 W/m² | - |
| 1777912333 | 22.78° C | 63% | 1015 hPa | 0 mm | - | 637 W/m² | - |
| 1777912028 | 22.78° C | 64% | 1014.8 hPa | 0 mm | - | 649 W/m² | - |
| 1777911725 | 22.78° C | 65% | 1015 hPa | 0 mm | - | 634 W/m² | - |
| 1777911421 | 22.78° C | 64% | 1015 hPa | 0 mm | - | 615 W/m² | - |
| 1777911119 | 22.22° C | 65% | 1014.9 hPa | 0 mm | - | 607 W/m² | - |
| 1777910816 | 22.22° C | 64% | 1015.4 hPa | 0 mm | - | 589 W/m² | - |
| 1777910513 | 22.22° C | 65% | 1015 hPa | 0 mm | - | 580 W/m² | - |
| 1777910209 | 21.67° C | 65% | 1015.3 hPa | 0 mm | - | 533 W/m² | - |
| 1777909907 | 21.67° C | 65% | 1015.3 hPa | 0 mm | - | 521 W/m² | - |
| 1777909603 | 21.67° C | 66% | 1015.3 hPa | 0 mm | - | 457 W/m² | - |
| 1777909301 | 21.67° C | 67% | 1015.4 hPa | 0 mm | - | 361 W/m² | - |
| 1777908998 | 21.67° C | 67% | 1015.3 hPa | 0 mm | - | 396 W/m² | - |
| 1777908697 | 21.67° C | 66% | 1015.4 hPa | 0 mm | - | 461 W/m² | - |
| 1777908393 | 21.11° C | 67% | 1015.6 hPa | 0 mm | - | 559 W/m² | - |
| 1777908089 | 21.67° C | 66% | 1015.4 hPa | 0 mm | - | 467 W/m² | - |
* Rain latest hour (hover to see other rain measurements)
** Current wind speed in m/s (hover to see current wind gust speed)